Theta_e
330 325 336 338 337 334 333 322 312 315 318 320 325 329 331 331 331 333 332 333 333 331 334 333 333 334 333 331 331 331 324 317 318
334 332 336 337 335 333 333 319 314 317 320 321 327 330 329 329 329 331 334 334 333 332 332 329 330 331 331 329 330 332 332 331 330
330 332 334 335 332 333 333 318 316 318 320 320 325 329 328 328 328 327 330 330 329 326 321 318 319 326 328 324 322 326 329 331 331
319 325 329 330 334 333 327 317 318 319 320 321 325 328 329 328 327 327 326 324 323 317 313 313 314 314 312 311 312 315 321 325 327
313 318 320 321 323 324 320 317 318 320 320 320 322 327 328 327 326 325 325 321 319 312 310 308 307 308 307 307 307 308 310 311 313
312 314 317 318 319 318 317 316 318 320 320 319 320 325 326 326 325 325 325 319 313 311 308 307 306 306 305 305 305 305 305 305 306
314 314 315 317 317 317 316 317 318 320 319 319 319 323 326 326 326 324 322 321 312 310 307 306 305 305 305 304 304 304 304 303 303
316 316 315 315 315 315 316 318 319 320 320 319 319 321 323 324 323 320 319 317 311 309 307 306 305 305 305 304 304 304 304 303 303
324 320 318 317 315 315 317 319 320 320 320 321 320 321 322 322 320 319 317 315 311 309 308 307 305 305 305 304 304 304 303 303 303
329 326 320 318 317 317 319 320 323 322 321 322 322 321 321 321 319 318 315 313 313 309 309 307 306 305 304 304 304 304 303 303 303
334 331 325 322 323 322 326 326 328 328 327 322 321 321 321 321 320 317 315 313 313 311 309 308 306 305 304 304 304 304 304 304 304
335 333 329 326 326 325 329 330 331 330 330 328 322 320 320 320 320 320 317 314 313 313 310 309 307 305 305 304 304 304 305 304 304
334 333 332 329 328 328 327 330 330 330 330 328 324 321 319 319 319 320 319 316 313 313 312 310 308 306 305 305 305 305 305 305 305
335 333 332 331 330 330 330 329 329 329 329 328 326 323 320 319 318 319 320 320 316 312 312 311 309 307 305 305 305 305 306 306 306
336 335 334 333 332 330 331 331 331 329 328 328 327 325 322 318 318 318 319 321 319 314 311 311 310 308 305 304 304 304 305 305 306
334 334 334 334 334 332 331 331 332 331 330 329 327 326 322 318 318 317 317 318 320 319 312 311 311 309 307 303 303 303 303 303 303
330 334 334 334 334 333 332 331 331 331 331 329 327 323 321 320 318 317 318 318 317 319 318 311 310 309 308 305 303 303 302 302 301
326 329 331 333 333 333 332 331 331 330 330 329 327 321 320 320 320 320 318 319 318 316 317 315 310 309 308 305 303 303 301 300 300
327 328 330 329 329 330 330 329 331 330 330 330 328 326 323 320 319 321 321 319 317 315 312 311 310 309 307 306 304 303 302 300 298
330 328 326 327 327 327 329 329 329 330 329 329 330 328 325 322 320 320 321 320 318 317 312 309 308 308 306 306 305 303 302 302 300
Wind_Speed
12 15 13 12 11 6 3 7 9 12 14 15 17 15 15 12 10 5 8 15 15 12 13 14 17 16 14 17 10 9 8 8 8
12 14 13 12 12 7 2 5 9 11 12 14 16 14 13 11 5 7 10 13 13 11 8 5 5 6 4 6 10 11 12 11 12
11 11 11 11 10 6 3 5 7 8 10 12 15 14 11 10 6 4 3 1 1 2 4 4 3 3 3 4 1 3 4 6 8
11 10 10 8 8 5 3 4 6 7 8 11 13 13 8 6 2 3 2 2 3 3 3 3 3 4 5 4 3 3 5 5 6
8 10 9 8 7 6 4 5 5 5 6 8 12 12 7 4 3 3 2 5 6 5 4 3 4 3 3 2 3 4 5 6 6
8 8 10 10 9 7 6 6 5 4 4 7 12 11 8 6 4 4 4 5 6 6 4 3 3 2 1 1 1 2 3 4 4
7 8 8 10 10 9 9 9 7 6 6 8 11 10 9 7 8 8 8 8 7 5 4 4 3 1 1 1 2 2 2 3 3
8 8 9 10 11 10 10 10 9 8 8 10 10 10 10 10 11 10 10 9 9 6 5 4 3 2 2 2 3 3 3 3 3
8 9 11 11 11 11 11 11 10 11 11 11 11 12 10 14 13 12 11 11 11 9 6 5 5 4 3 4 4 4 4 3 3
10 11 12 11 13 13 13 13 11 12 14 12 12 13 12 16 17 15 14 13 12 12 9 7 7 6 6 6 5 5 5 4 4
15 15 14 13 12 13 11 12 13 13 13 15 17 16 15 15 18 18 17 15 13 14 12 9 8 8 8 8 7 6 6 5 4
21 19 18 16 15 14 12 12 14 16 19 19 19 19 19 18 19 19 20 17 16 15 15 13 11 10 10 10 9 8 7 7 6
24 24 21 19 19 18 19 18 20 23 25 24 22 21 22 22 22 22 22 22 18 17 17 16 13 13 12 11 11 10 10 9 8
21 23 24 23 23 24 23 24 27 28 29 27 25 25 24 25 26 26 25 24 22 20 19 18 16 16 15 14 14 13 12 11 10
24 24 23 26 27 27 28 28 28 29 30 30 30 29 28 27 28 29 29 27 27 25 23 21 19 19 18 18 18 16 15 14 13
27 29 29 28 29 30 31 31 33 34 32 31 31 32 30 31 32 31 32 32 30 29 28 25 23 22 21 22 22 20 19 17 15
31 30 30 31 33 32 32 35 38 38 38 34 33 27 33 36 38 36 35 35 34 33 31 31 28 26 25 24 25 24 22 20 18
26 34 31 32 32 34 35 36 39 41 40 40 32 15 23 26 34 39 40 39 38 38 36 33 33 31 28 27 28 27 25 23 21
22 19 25 31 34 36 36 36 40 39 43 40 43 42 28 18 14 25 31 37 40 39 39 37 35 34 32 30 30 27 25 25 23
22 24 26 25 25 30 36 36 38 40 40 45 44 47 49 40 30 29 29 28 34 38 39 37 34 34 35 34 32 29 28 26 24
Wind_Direction
118 139 134 129 132 137 88 56 88 97 103 107 112 106 94 80 76 104 101 83 103 95 98 96 89 96 80 68 94 68 74 88 98
130 136 141 142 146 167 112 74 100 104 106 114 120 111 110 101 100 93 116 102 105 110 105 101 108 118 87 53 80 89 84 95 105
146 143 144 152 161 163 142 106 114 114 113 120 128 121 123 128 140 163 196 216 232 300 296 285 249 235 277 311 137 158 134 121 125
163 161 161 163 179 178 162 131 128 122 122 129 140 135 137 146 142 105 68 259 299 330 319 302 282 275 281 278 248 224 210 204 209
176 174 175 179 180 184 174 157 145 134 134 144 153 153 156 181 231 244 314 295 294 313 319 312 299 287 286 278 250 239 232 228 235
188 190 189 185 187 188 187 180 172 161 155 158 164 169 173 190 216 248 285 291 293 311 312 307 293 295 275 242 203 206 215 216 225
211 199 204 204 205 199 194 195 195 190 179 170 174 181 199 214 240 261 271 278 284 285 298 301 299 295 193 158 170 163 175 174 180
208 223 222 218 220 218 211 207 209 208 196 181 187 197 211 232 246 258 270 276 277 277 277 275 267 251 219 175 174 181 181 173 172
241 241 239 238 238 230 224 220 225 225 210 200 202 214 220 241 251 256 263 274 273 269 268 265 249 239 223 207 190 191 187 184 182
264 266 250 245 240 242 236 233 228 230 243 227 223 228 229 242 252 259 264 266 268 267 266 261 249 242 228 214 204 205 200 192 184
270 274 269 248 251 241 244 239 240 246 246 242 237 239 241 242 252 259 263 263 264 263 264 261 255 244 231 217 218 212 207 202 197
264 268 267 263 260 256 244 249 250 248 261 259 245 242 246 247 250 258 264 263 261 259 259 259 255 246 235 226 225 217 216 210 213
257 262 264 263 259 259 252 242 241 246 254 259 254 249 246 247 250 257 261 263 260 256 255 256 253 248 241 236 227 224 224 222 224
251 258 262 256 252 251 250 244 241 246 252 254 256 256 252 249 247 251 256 261 260 257 256 254 251 247 243 241 236 233 232 234 234
264 263 263 258 252 250 251 253 249 250 254 253 256 259 260 253 249 250 253 255 260 258 254 252 249 247 243 239 242 241 238 237 242
257 263 266 266 258 255 249 252 254 252 249 246 251 255 255 255 254 251 249 252 254 258 257 251 249 246 245 240 242 245 247 243 246
259 258 262 264 263 260 256 246 250 253 249 239 242 245 249 252 253 251 249 249 252 254 255 257 251 248 247 245 244 247 247 249 249
263 257 256 257 262 266 262 255 248 256 253 247 235 227 235 251 257 256 253 249 247 250 252 252 255 252 249 246 244 246 247 249 251
280 272 262 267 263 260 261 263 261 254 259 252 239 238 253 247 254 257 252 248 247 248 251 251 252 253 251 248 244 244 244 247 248
277 281 284 279 272 272 263 265 263 263 261 259 255 243 243 246 252 262 259 250 244 246 247 253 256 258 257 252 247 243 244 246 247